#timestamp,LO_Frequency,Hit 
1503144015.7,286046999.0,N
1503144035.6,286046998.3,N
1503144055.4,286046999.0,N
1503144075.2,286046998.5,N
1503144095.1,286046998.2,N
1503144096.0,286046998.2,N
1503144115.8,286046999.3,N
1503144135.6,286046998.2,N
1503144155.5,286046998.4,N
1503144175.3,286047001.1,N
1503144195.1,286047000.9,N
1503144215.9,286046998.8,N
1503144235.7,286046998.5,N
1503144255.5,286047000.8,N
1503144275.3,286047000.7,N
1503144295.2,286046998.1,N
1503144315.0,286046998.7,N
1503144315.9,286046998.7,N
1503144335.7,286046999.5,N
1503144355.6,286046998.8,N
1503144375.4,286046996.9,N
1503144395.2,286046997.5,N
1503144415.1,286046996.7,N
1503144416.0,286046996.7,N
1503144435.8,286046997.9,N
1503144455.6,286046997.6,N
1503144475.5,286046997.6,N
1503144495.3,286046997.5,N
1503144515.1,286046999.4,N
1503144535.9,286046998.3,N
1503144555.7,286046998.2,N
1503144575.5,286046999.3,N
1503144595.3,286046999.5,N
1503144615.2,286046999.0,N
1503144635.0,286046998.9,N
1503144635.9,286046998.9,N
1503144655.7,286046998.1,N
1503144675.6,286046998.9,N
1503144695.4,286046999.9,N
1503144715.2,286047000.9,N
1503144735.1,286047000.3,N
1503144736.0,286047000.3,N
1503144755.8,286047000.0,N
1503144775.6,286047000.2,N
1503144795.5,286047000.3,N
1503144815.3,286046999.8,N
1503144835.1,286047000.3,N
1503144855.9,286047004.0,P
1503144875.7,286047003.0,N
1503144895.5,286047005.4,N
1503144915.4,286047005.5,N
1503144935.2,286047003.9,N
1503144955.0,286047001.5,N
1503144955.9,286047001.5,N
1503144975.8,286047001.6,N
1503144995.6,286047000.8,N
1503145015.4,286047000.1,N
1503145035.2,286047000.3,N
1503145055.1,286047001.0,N
1503145056.0,286047001.0,N
1503145075.8,286047002.3,N
1503145095.6,286047000.7,N
1503145115.5,286047002.2,N
1503145135.3,286047000.2,N
1503145155.1,286047002.6,N
1503145175.9,286047002.5,N
1503145195.7,286047002.6,N
1503145215.5,286047000.0,N
1503145235.4,286047000.9,N
1503145255.2,286046998.4,N
1503145275.0,286046998.2,N
1503145275.9,286046998.2,N
1503145295.7,286047001.1,N
1503145315.6,286047000.8,N
1503145335.4,286046998.4,N
1503145355.2,286046998.8,N
1503145375.1,286047001.0,N
1503145376.0,286047001.0,N
1503145395.8,286047001.2,N
1503145415.6,286046998.3,N
1503145435.5,286047001.2,N
1503145455.3,286047000.6,N
1503145475.1,286047000.3,N
1503145495.9,286046998.9,N
1503145515.7,286047000.4,N
1503145535.5,286046998.2,N
1503145555.4,286047000.8,N
1503145575.2,286046998.9,N
1503145595.0,286047001.0,N
1503145595.9,286047001.0,N
1503145615.8,286047000.8,N
1503145635.6,286046998.1,N
1503145655.4,286047000.5,N
1503145675.2,286046999.0,N
1503145695.1,286046996.6,N
1503145696.0,286046996.6,N
1503145715.8,286046999.3,N
1503145735.6,286046999.0,N
1503145755.5,286047001.0,N
1503145775.3,286046998.5,N
1503145795.1,286046999.5,N
1503145815.9,286046999.6,N
1503145835.7,286046997.7,N
1503145855.1,286046997.4,N
1503145875.8,286046997.1,N
1503145895.7,286046997.7,N
1503145915.5,286046996.9,N
1503145935.3,286046998.4,N
1503145955.2,286046996.8,N
1503145975.9,286046995.7,N
1503145995.7,286046995.9,N
1503146015.6,286046997.8,N
1503146035.4,286046995.5,N
1503146055.2,286046993.8,P
1503146075.1,286046994.9,N
1503146076.0,286046994.9,N
1503146095.8,286046997.1,N
1503146115.6,286046997.0,N
1503146135.5,286046997.6,N
1503146155.3,286046995.2,P
1503146175.1,286047001.0,N
1503146195.9,286046998.3,N
1503146215.7,286046998.3,N
1503146235.5,286047000.9,N
1503146255.4,286047002.6,N
1503146275.2,286047002.7,N
1503146295.0,286047001.7,N
1503146295.9,286047001.7,N
1503146315.8,286047005.7,N
1503146335.6,286047003.2,N
1503146355.4,286047003.9,N
1503146375.2,286047003.8,N
1503146395.1,286047001.3,N
1503146396.0,286047001.3,N
1503146415.8,286047003.9,N
1503146435.6,286047003.7,N
1503146455.5,286047004.3,N
1503146475.3,286047001.8,N
1503146495.1,286047001.5,N
1503146515.9,286046999.7,N
1503146535.7,286047000.7,N
1503146555.5,286046998.8,N
1503146575.4,286046998.5,N
1503146595.2,286046998.3,N
1503146615.0,286047000.5,N
1503146615.9,286047000.5,N
1503146635.8,286047000.5,N
1503146655.6,286046998.7,N
1503146675.4,286046998.1,N
1503146695.2,286046999.1,N
1503146715.1,286046999.3,N
1503146716.0,286046999.3,N
1503146735.8,286046999.3,N
1503146755.6,286047000.4,N
1503146775.5,286046999.7,N
1503146795.3,286047001.7,N
1503146815.1,286047004.1,N
1503146835.9,286047004.3,N
1503146855.7,286047004.2,N
1503146875.5,286047001.3,N
1503146895.4,286047002.1,N
1503146915.2,286047002.8,N
1503146935.0,286047000.7,N
1503146935.9,286047000.7,N
1503146955.8,286046998.1,N
1503146975.6,286046998.3,N
1503146995.4,286046996.9,N
1503147015.2,286046998.2,N
1503147035.1,286047000.9,N
1503147036.0,286047000.9,N
1503147055.8,286047000.9,N
1503147075.6,286047004.4,N
1503147095.5,286047002.7,N
1503147115.3,286047000.6,N
1503147135.1,286046999.4,N
1503147155.9,286046998.1,N
1503147175.7,286047001.0,N
1503147195.5,286046999.1,N
1503147215.4,286046998.2,N
1503147235.2,286046998.4,N
1503147255.0,286046999.5,N
1503147255.9,286046999.5,N
1503147275.8,286046998.1,N
1503147295.6,286046998.8,N
1503147315.4,286046999.0,N
1503147335.3,286047000.7,N
1503147355.1,286046999.4,N
1503147356.0,286046999.4,N
1503147375.8,286046998.3,N
1503147395.7,286047002.2,N
1503147415.5,286047000.4,N
1503147435.3,286046998.5,N
1503147455.1,286047000.7,N
1503147475.9,286047000.1,N
1503147495.7,286046999.9,N
1503147515.5,286047002.1,N
1503147535.4,286046999.8,N
1503147555.2,286047002.0,N
1503147575.0,286047000.1,N
1503147575.9,286047000.1,N
1503147595.8,286046999.9,N
